Wetterdaten: Montag, 24.08.2015
Datum Zeit Auen-Temp. Temp gefhlt Luftfeuchte Luftdruck Regen Wind Richtung Richtung Taupunkt Windben
24.08.2015 00:00 14,6 C 14,5 C 88 % 1005,2 hPa 0,0 mm 0,8 km/h (0 Bft) S-SO 157 12,6 C 0,0 km/h (0 Bft)
24.08.2015 00:01 14,6 C 14,5 C 88 % 1005,2 hPa 0,0 mm 2,1 km/h (1 Bft) S 180 12,6 C 0,0 km/h (0 Bft)
24.08.2015 00:02 14,6 C 14,5 C 88 % 1005,2 hPa 0,0 mm 2,1 km/h (1 Bft) S 180 12,6 C 0,0 km/h (0 Bft)
24.08.2015 00:05 14,6 C 14,5 C 88 % 1005,2 hPa 0,0 mm 2,1 km/h (1 Bft) S 180 12,6 C 0,0 km/h (0 Bft)
24.08.2015 00:10 14,4 C 14,3 C 88 % 1005,2 hPa 0,0 mm 2,6 km/h (1 Bft) W-SW 247 12,4 C 7,3 km/h (2 Bft)
24.08.2015 00:15 14,4 C 14,3 C 88 % 1005,2 hPa 0,0 mm 3,9 km/h (1 Bft) S-SO 157 12,4 C 3,9 km/h (1 Bft)
24.08.2015 00:20 14,3 C 14,2 C 88 % 1005,2 hPa 0,0 mm 5,2 km/h (1 Bft) SW 225 12,3 C 10,4 km/h (2 Bft)
24.08.2015 00:25 14,2 C 14,1 C 88 % 1005,2 hPa 0,0 mm 3,6 km/h (1 Bft) S 180 12,2 C 0,0 km/h (0 Bft)
24.08.2015 00:30 14,0 C 13,9 C 88 % 1005,2 hPa 0,0 mm 1,3 km/h (1 Bft) S 180 12,0 C 3,1 km/h (1 Bft)
24.08.2015 00:35 14,0 C 13,9 C 88 % 1005,1 hPa 0,0 mm 0,8 km/h (0 Bft) W-SW 247 12,0 C 4,7 km/h (1 Bft)
24.08.2015 00:40 13,9 C 13,8 C 88 % 1005,1 hPa 0,0 mm 1,0 km/h (0 Bft) N-NW 337 11,9 C 0,0 km/h (0 Bft)
24.08.2015 00:45 13,7 C 13,6 C 88 % 1005,1 hPa 0,0 mm 0,8 km/h (0 Bft) N-NW 337 11,7 C 0,0 km/h (0 Bft)
24.08.2015 00:50 13,8 C 13,7 C 88 % 1005,1 hPa 0,0 mm 0,0 km/h (0 Bft) S-SW 202 11,8 C 3,6 km/h (1 Bft)
24.08.2015 00:55 13,9 C 13,8 C 88 % 1004,9 hPa 0,0 mm 0,0 km/h (0 Bft) S 180 11,9 C 0,0 km/h (0 Bft)
24.08.2015 01:00 13,8 C 13,7 C 89 % 1004,9 hPa 0,0 mm 0,0 km/h (0 Bft) SO 135 12,0 C 0,0 km/h (0 Bft)
24.08.2015 01:05 13,5 C 13,5 C 88 % 1004,9 hPa 0,0 mm 0,0 km/h (0 Bft) SO 135 11,6 C 0,0 km/h (0 Bft)
24.08.2015 01:10 13,4 C 13,3 C 88 % 1004,9 hPa 0,0 mm 0,0 km/h (0 Bft) S-SO 157 11,5 C 0,0 km/h (0 Bft)
24.08.2015 01:15 13,3 C 13,2 C 88 % 1004,9 hPa 0,0 mm 0,0 km/h (0 Bft) O-SO 112 11,4 C 0,0 km/h (0 Bft)
24.08.2015 01:20 13,4 C 13,3 C 88 % 1004,9 hPa 0,0 mm 0,0 km/h (0 Bft) O-SO 112 11,5 C 0,0 km/h (0 Bft)
24.08.2015 01:25 13,3 C 13,2 C 88 % 1004,9 hPa 0,0 mm 0,0 km/h (0 Bft) SO 135 11,4 C 0,0 km/h (0 Bft)
24.08.2015 01:30 13,2 C 13,1 C 88 % 1004,9 hPa 0,0 mm 0,0 km/h (0 Bft) O-SO 112 11,3 C 0,0 km/h (0 Bft)
24.08.2015 01:35 13,3 C 13,2 C 88 % 1004,8 hPa 0,0 mm 0,0 km/h (0 Bft) O-SO 112 11,4 C 0,0 km/h (0 Bft)
24.08.2015 01:40 13,5 C 13,3 C 89 % 1004,8 hPa 0,0 mm 0,0 km/h (0 Bft) SO 135 11,7 C 0,0 km/h (0 Bft)
24.08.2015 01:45 13,6 C 13,5 C 89 % 1004,8 hPa 0,0 mm 0,0 km/h (0 Bft) SO 135 11,8 C 0,0 km/h (0 Bft)
24.08.2015 01:50 13,6 C 13,5 C 89 % 1004,8 hPa 0,0 mm 0,0 km/h (0 Bft) S 180 11,8 C 0,0 km/h (0 Bft)
24.08.2015 01:55 13,5 C 13,4 C 89 % 1004,7 hPa 0,0 mm 0,0 km/h (0 Bft) S 180 11,7 C 0,0 km/h (0 Bft)
24.08.2015 02:00 13,3 C 13,3 C 89 % 1004,7 hPa 0,0 mm 0,0 km/h (0 Bft) O-SO 112 11,5 C 0,0 km/h (0 Bft)
24.08.2015 02:05 13,2 C 13,1 C 89 % 1004,7 hPa 0,0 mm 0,0 km/h (0 Bft) O-SO 112 11,4 C 0,0 km/h (0 Bft)
24.08.2015 02:10 13,2 C 13,1 C 89 % 1004,7 hPa 0,0 mm 0,5 km/h (0 Bft) W-SW 247 11,4 C 0,0 km/h (0 Bft)
24.08.2015 02:15 13,2 C 13,1 C 89 % 1004,7 hPa 0,0 mm 0,5 km/h (0 Bft) S-SW 202 11,4 C 0,0 km/h (0 Bft)
24.08.2015 02:20 13,3 C 13,2 C 89 % 1004,7 hPa 0,0 mm 0,0 km/h (0 Bft) S-SW 202 11,5 C 0,0 km/h (0 Bft)
24.08.2015 02:25 13,3 C 13,3 C 86 % 1004,7 hPa 0,0 mm 0,0 km/h (0 Bft) O-SO 112 11,0 C 0,0 km/h (0 Bft)
24.08.2015 02:30 13,3 C 13,2 C 89 % 1004,7 hPa 0,0 mm 0,0 km/h (0 Bft) O-SO 112 11,5 C 0,0 km/h (0 Bft)
24.08.2015 02:35 13,3 C 13,2 C 89 % 1004,5 hPa 0,0 mm 0,0 km/h (0 Bft) O-SO 112 11,5 C 0,0 km/h (0 Bft)
24.08.2015 02:40 13,3 C 13,2 C 89 % 1004,5 hPa 0,0 mm 0,0 km/h (0 Bft) SO 135 11,5 C 0,0 km/h (0 Bft)
24.08.2015 02:45 13,3 C 13,2 C 89 % 1004,5 hPa 0,0 mm 0,0 km/h (0 Bft) O-SO 112 11,5 C 0,0 km/h (0 Bft)
24.08.2015 02:50 13,4 C 13,3 C 89 % 1004,5 hPa 0,0 mm 0,0 km/h (0 Bft) O-SO 112 11,6 C 0,0 km/h (0 Bft)
24.08.2015 02:55 13,4 C 13,3 C 89 % 1004,5 hPa 0,0 mm 0,0 km/h (0 Bft) O-SO 112 11,6 C 0,0 km/h (0 Bft)
24.08.2015 03:00 13,5 C 13,4 C 89 % 1004,5 hPa 0,0 mm 0,0 km/h (0 Bft) SO 135 11,7 C 0,0 km/h (0 Bft)
24.08.2015 03:05 13,5 C 13,5 C 87 % 1004,5 hPa 0,0 mm 0,0 km/h (0 Bft) O 90 11,4 C 0,0 km/h (0 Bft)
24.08.2015 03:10 13,6 C 13,5 C 89 % 1004,5 hPa 0,0 mm 0,0 km/h (0 Bft) SO 135 11,8 C 0,0 km/h (0 Bft)
24.08.2015 03:15 13,6 C 13,6 C 87 % 1004,4 hPa 0,0 mm 0,0 km/h (0 Bft) SO 135 11,5 C 0,0 km/h (0 Bft)
24.08.2015 03:20 13,7 C 13,7 C 87 % 1004,4 hPa 0,0 mm 0,0 km/h (0 Bft) SO 135 11,6 C 0,0 km/h (0 Bft)
24.08.2015 03:25 13,7 C 13,6 C 89 % 1004,4 hPa 0,0 mm 0,0 km/h (0 Bft) W 270 11,9 C 0,0 km/h (0 Bft)
24.08.2015 03:30 13,7 C 13,7 C 87 % 1004,4 hPa 0,0 mm 0,0 km/h (0 Bft) W-NW 292 11,6 C 0,0 km/h (0 Bft)
24.08.2015 03:35 13,7 C 13,7 C 87 % 1003,9 hPa 0,0 mm 0,0 km/h (0 Bft) NW 315 11,6 C 0,0 km/h (0 Bft)
24.08.2015 03:40 13,8 C 13,7 C 89 % 1003,9 hPa 0,0 mm 0,0 km/h (0 Bft) W-NW 292 12,0 C 0,0 km/h (0 Bft)
24.08.2015 03:45 13,8 C 13,8 C 87 % 1003,9 hPa 0,0 mm 0,0 km/h (0 Bft) NW 315 11,7 C 0,0 km/h (0 Bft)
24.08.2015 03:50 13,9 C 13,9 C 87 % 1003,9 hPa 0,0 mm 0,0 km/h (0 Bft) NW 315 11,8 C 0,0 km/h (0 Bft)
24.08.2015 03:55 13,9 C 13,9 C 87 % 1003,9 hPa 0,0 mm 0,0 km/h (0 Bft) NW 315 11,8 C 0,0 km/h (0 Bft)
24.08.2015 04:00 14,0 C 14,0 C 87 % 1003,9 hPa 0,0 mm 0,0 km/h (0 Bft) N-NO 22 11,9 C 0,0 km/h (0 Bft)
24.08.2015 04:05 14,1 C 14,0 C 89 % 1003,9 hPa 0,0 mm 0,0 km/h (0 Bft) N-NO 22 12,3 C 0,0 km/h (0 Bft)
24.08.2015 04:10 14,1 C 14,1 C 87 % 1003,9 hPa 0,0 mm 0,0 km/h (0 Bft) NO 45 12,0 C 2,8 km/h (1 Bft)
24.08.2015 04:15 14,1 C 14,2 C 87 % 1003,9 hPa 0,0 mm 0,5 km/h (0 Bft) NO 45 12,0 C 0,0 km/h (0 Bft)
24.08.2015 04:20 14,2 C 14,2 C 87 % 1003,9 hPa 0,0 mm 1,0 km/h (0 Bft) O-NO 67 12,1 C 0,0 km/h (0 Bft)
24.08.2015 04:25 14,2 C 14,2 C 87 % 1003,9 hPa 0,0 mm 1,3 km/h (1 Bft) O 90 12,1 C 0,0 km/h (0 Bft)
24.08.2015 04:30 14,3 C 14,3 C 89 % 1003,9 hPa 0,0 mm 2,3 km/h (1 Bft) NO 45 12,5 C 3,4 km/h (1 Bft)
24.08.2015 04:35 14,3 C 14,3 C 89 % 1003,6 hPa 0,0 mm 2,3 km/h (1 Bft) O 90 12,5 C 0,0 km/h (0 Bft)
24.08.2015 04:40 14,3 C 14,3 C 89 % 1003,6 hPa 0,0 mm 2,3 km/h (1 Bft) O-NO 67 12,5 C 4,9 km/h (1 Bft)
24.08.2015 04:45 14,3 C 14,3 C 90 % 1003,6 hPa 0,0 mm 2,8 km/h (1 Bft) O-NO 67 12,7 C 3,1 km/h (1 Bft)
24.08.2015 04:50 14,3 C 14,3 C 90 % 1003,6 hPa 0,0 mm 2,3 km/h (1 Bft) O-SO 112 12,7 C 0,0 km/h (0 Bft)
24.08.2015 04:55 14,3 C 14,3 C 90 % 1003,6 hPa 0,0 mm 1,6 km/h (1 Bft) O-SO 112 12,7 C 4,4 km/h (1 Bft)
24.08.2015 05:00 14,3 C 14,3 C 87 % 1003,6 hPa 0,0 mm 2,6 km/h (1 Bft) O-NO 67 12,2 C 3,9 km/h (1 Bft)
24.08.2015 05:05 14,3 C 14,3 C 87 % 1003,6 hPa 0,0 mm 2,3 km/h (1 Bft) NO 45 12,2 C 0,0 km/h (0 Bft)
24.08.2015 05:10 14,4 C 14,3 C 90 % 1003,6 hPa 0,0 mm 1,3 km/h (1 Bft) O-SO 112 12,8 C 3,9 km/h (1 Bft)
24.08.2015 05:15 14,4 C 14,3 C 90 % 1003,8 hPa 0,0 mm 1,6 km/h (1 Bft) O-SO 112 12,8 C 4,4 km/h (1 Bft)
24.08.2015 05:20 14,4 C 14,3 C 90 % 1003,8 hPa 0,0 mm 2,3 km/h (1 Bft) N-NO 22 12,8 C 4,4 km/h (1 Bft)
24.08.2015 05:25 14,4 C 14,3 C 90 % 1003,8 hPa 0,0 mm 2,1 km/h (1 Bft) NO 45 12,8 C 0,0 km/h (0 Bft)
24.08.2015 05:30 14,4 C 14,3 C 90 % 1003,8 hPa 0,0 mm 2,1 km/h (1 Bft) O-NO 67 12,8 C 0,0 km/h (0 Bft)
24.08.2015 05:35 14,4 C 14,3 C 90 % 1003,8 hPa 0,0 mm 1,3 km/h (1 Bft) W 270 12,8 C 0,0 km/h (0 Bft)
24.08.2015 05:40 14,4 C 14,3 C 90 % 1003,8 hPa 0,0 mm 0,8 km/h (0 Bft) NO 45 12,8 C 0,0 km/h (0 Bft)
24.08.2015 05:45 14,4 C 14,4 C 90 % 1003,8 hPa 0,0 mm 0,8 km/h (0 Bft) N-NO 22 12,8 C 0,0 km/h (0 Bft)
24.08.2015 05:50 14,4 C 14,4 C 90 % 1003,8 hPa 0,0 mm 0,8 km/h (0 Bft) O-NO 67 12,8 C 0,0 km/h (0 Bft)
24.08.2015 05:55 14,4 C 14,4 C 90 % 1003,4 hPa 0,0 mm 0,8 km/h (0 Bft) SO 135 12,8 C 3,4 km/h (1 Bft)
24.08.2015 06:00 14,4 C 14,3 C 90 % 1003,4 hPa 0,0 mm 0,3 km/h (0 Bft) O-SO 112 12,8 C 0,0 km/h (0 Bft)
24.08.2015 06:01 14,4 C 14,3 C 90 % 1003,4 hPa 0,0 mm 0,3 km/h (0 Bft) NO 45 12,8 C 0,0 km/h (0 Bft)
24.08.2015 06:04 14,4 C 14,3 C 90 % 1003,4 hPa 0,0 mm 0,3 km/h (0 Bft) NO 45 12,8 C 0,0 km/h (0 Bft)
24.08.2015 06:05 14,4 C 14,3 C 90 % 1003,4 hPa 0,0 mm 0,3 km/h (0 Bft) NO 45 12,8 C 0,0 km/h (0 Bft)
24.08.2015 06:10 14,3 C 14,3 C 90 % 1003,4 hPa 0,0 mm 0,8 km/h (0 Bft) NO 45 12,7 C 6,5 km/h (2 Bft)
24.08.2015 06:15 14,3 C 14,2 C 90 % 1003,6 hPa 0,0 mm 1,3 km/h (1 Bft) O 90 12,7 C 4,1 km/h (1 Bft)
24.08.2015 06:20 14,1 C 14,0 C 89 % 1003,6 hPa 0,0 mm 1,3 km/h (1 Bft) NO 45 12,3 C 0,0 km/h (0 Bft)
24.08.2015 06:25 14,0 C 13,9 C 89 % 1003,6 hPa 0,0 mm 0,5 km/h (0 Bft) NO 45 12,2 C 3,4 km/h (1 Bft)
24.08.2015 06:30 13,9 C 13,8 C 90 % 1003,6 hPa 0,0 mm 0,3 km/h (0 Bft) NO 45 12,3 C 0,0 km/h (0 Bft)
24.08.2015 06:35 13,9 C 13,8 C 90 % 1003,6 hPa 0,0 mm 0,3 km/h (0 Bft) O-NO 67 12,3 C 0,0 km/h (0 Bft)
24.08.2015 06:40 13,8 C 13,7 C 90 % 1003,6 hPa 0,0 mm 0,0 km/h (0 Bft) N-NO 22 12,2 C 0,0 km/h (0 Bft)
24.08.2015 06:45 13,7 C 13,6 C 90 % 1003,6 hPa 0,0 mm 0,0 km/h (0 Bft) N-NO 22 12,1 C 0,0 km/h (0 Bft)
24.08.2015 06:50 13,8 C 13,7 C 90 % 1003,6 hPa 0,0 mm 0,0 km/h (0 Bft) O 90 12,2 C 0,0 km/h (0 Bft)
24.08.2015 06:55 13,8 C 13,7 C 90 % 1003,2 hPa 0,0 mm 0,0 km/h (0 Bft) O 90 12,2 C 0,0 km/h (0 Bft)
24.08.2015 07:00 13,8 C 13,7 C 90 % 1003,2 hPa 0,0 mm 0,0 km/h (0 Bft) N-NW 337 12,2 C 0,0 km/h (0 Bft)
24.08.2015 07:05 13,9 C 13,8 C 90 % 1003,2 hPa 0,0 mm 0,0 km/h (0 Bft) W-SW 247 12,3 C 0,0 km/h (0 Bft)
24.08.2015 07:10 13,9 C 13,9 C 87 % 1003,2 hPa 0,0 mm 0,0 km/h (0 Bft) NO 45 11,8 C 0,0 km/h (0 Bft)
24.08.2015 07:15 14,0 C 13,9 C 89 % 1003,4 hPa 0,0 mm 0,0 km/h (0 Bft) O-NO 67 12,2 C 0,0 km/h (0 Bft)
24.08.2015 07:20 14,0 C 14,0 C 87 % 1003,4 hPa 0,0 mm 0,0 km/h (0 Bft) SO 135 11,9 C 0,0 km/h (0 Bft)
24.08.2015 07:25 14,1 C 14,1 C 87 % 1003,4 hPa 0,0 mm 0,3 km/h (0 Bft) W-NW 292 12,0 C 0,0 km/h (0 Bft)
24.08.2015 07:30 14,1 C 14,2 C 87 % 1003,4 hPa 0,0 mm 1,0 km/h (0 Bft) O-NO 67 12,0 C 3,9 km/h (1 Bft)
24.08.2015 07:35 14,1 C 14,2 C 87 % 1003,1 hPa 0,0 mm 2,3 km/h (1 Bft) NO 45 12,0 C 4,4 km/h (1 Bft)
24.08.2015 07:40 14,0 C 14,0 C 87 % 1003,1 hPa 0,0 mm 3,6 km/h (1 Bft) NO 45 11,9 C 4,1 km/h (1 Bft)
24.08.2015 07:45 14,0 C 14,0 C 87 % 1003,1 hPa 0,0 mm 3,1 km/h (1 Bft) NO 45 11,9 C 4,1 km/h (1 Bft)
24.08.2015 07:50 14,0 C 14,1 C 87 % 1003,1 hPa 0,0 mm 2,3 km/h (1 Bft) NO 45 11,9 C 0,0 km/h (0 Bft)
24.08.2015 07:55 14,0 C 14,1 C 87 % 1002,9 hPa 0,0 mm 2,6 km/h (1 Bft) N-NO 22 11,9 C 5,2 km/h (1 Bft)
24.08.2015 08:00 14,1 C 14,2 C 87 % 1002,9 hPa 0,0 mm 3,4 km/h (1 Bft) O-NO 67 12,0 C 6,2 km/h (2 Bft)
24.08.2015 08:05 14,1 C 14,4 C 87 % 1002,9 hPa 0,0 mm 4,1 km/h (1 Bft) O-NO 67 12,0 C 2,6 km/h (1 Bft)
24.08.2015 08:10 14,2 C 15,0 C 87 % 1002,9 hPa 0,0 mm 3,1 km/h (1 Bft) O-NO 67 12,1 C 8,8 km/h (2 Bft)
24.08.2015 08:15 14,3 C 15,1 C 87 % 1003,2 hPa 0,0 mm 3,1 km/h (1 Bft) NO 45 12,2 C 5,7 km/h (1 Bft)
24.08.2015 08:20 14,4 C 15,3 C 87 % 1003,2 hPa 0,0 mm 4,7 km/h (1 Bft) N 360 12,3 C 3,4 km/h (1 Bft)
24.08.2015 08:25 14,5 C 15,5 C 87 % 1003,2 hPa 0,0 mm 3,4 km/h (1 Bft) N 360 12,4 C 0,0 km/h (0 Bft)
24.08.2015 08:30 14,6 C 15,7 C 87 % 1003,2 hPa 0,0 mm 2,8 km/h (1 Bft) O-NO 67 12,5 C 6,5 km/h (2 Bft)
24.08.2015 08:35 14,6 C 15,8 C 87 % 1002,8 hPa 0,0 mm 4,4 km/h (1 Bft) O-NO 67 12,5 C 6,5 km/h (2 Bft)
24.08.2015 08:40 14,8 C 16,1 C 87 % 1002,8 hPa 0,0 mm 6,0 km/h (2 Bft) NO 45 12,7 C 10,9 km/h (2 Bft)
24.08.2015 08:45 14,9 C 16,5 C 87 % 1002,8 hPa 0,0 mm 6,7 km/h (2 Bft) N-NO 22 12,8 C 11,1 km/h (2 Bft)
24.08.2015 08:50 15,2 C 17,3 C 87 % 1002,8 hPa 0,0 mm 8,0 km/h (2 Bft) O-NO 67 13,0 C 14,0 km/h (3 Bft)
24.08.2015 08:55 15,4 C 17,5 C 87 % 1002,5 hPa 0,0 mm 7,8 km/h (2 Bft) N-NO 22 13,2 C 5,2 km/h (1 Bft)
24.08.2015 09:00 15,5 C 18,0 C 87 % 1002,5 hPa 0,0 mm 6,7 km/h (2 Bft) N-NO 22 13,3 C 7,3 km/h (2 Bft)
24.08.2015 09:05 15,5 C 17,7 C 87 % 1002,5 hPa 0,0 mm 6,0 km/h (2 Bft) SO 135 13,3 C 3,9 km/h (1 Bft)
24.08.2015 09:10 15,7 C 17,4 C 87 % 1002,5 hPa 0,0 mm 3,9 km/h (1 Bft) N-NO 22 13,5 C 0,0 km/h (0 Bft)
24.08.2015 09:15 15,8 C 17,5 C 87 % 1002,9 hPa 0,0 mm 2,6 km/h (1 Bft) N-NO 22 13,6 C 5,7 km/h (1 Bft)
24.08.2015 09:20 15,9 C 17,6 C 86 % 1002,9 hPa 0,0 mm 2,8 km/h (1 Bft) O-NO 67 13,6 C 3,1 km/h (1 Bft)
24.08.2015 09:25 16,0 C 17,7 C 86 % 1002,9 hPa 0,0 mm 2,3 km/h (1 Bft) O-NO 67 13,7 C 0,0 km/h (0 Bft)
24.08.2015 09:30 16,6 C 19,3 C 86 % 1002,9 hPa 0,0 mm 0,3 km/h (0 Bft) O-NO 67 14,2 C 0,0 km/h (0 Bft)
24.08.2015 09:35 17,0 C 19,9 C 85 % 1002,8 hPa 0,0 mm 0,3 km/h (0 Bft) NW 315 14,5 C 3,6 km/h (1 Bft)
24.08.2015 09:40 17,2 C 20,1 C 85 % 1002,8 hPa 0,0 mm 1,0 km/h (0 Bft) O-SO 112 14,7 C 0,0 km/h (0 Bft)
24.08.2015 09:45 17,1 C 19,9 C 85 % 1002,8 hPa 0,0 mm 2,8 km/h (1 Bft) O-NO 67 14,6 C 4,4 km/h (1 Bft)
24.08.2015 09:50 17,1 C 19,5 C 85 % 1002,8 hPa 0,0 mm 2,6 km/h (1 Bft) NO 45 14,6 C 3,1 km/h (1 Bft)
24.08.2015 09:55 17,1 C 19,2 C 85 % 1003,1 hPa 0,0 mm 3,9 km/h (1 Bft) O-NO 67 14,6 C 6,7 km/h (2 Bft)
24.08.2015 10:00 17,2 C 18,8 C 84 % 1003,1 hPa 0,0 mm 4,4 km/h (1 Bft) N-NO 22 14,5 C 0,0 km/h (0 Bft)
24.08.2015 10:05 17,3 C 19,0 C 84 % 1003,1 hPa 0,0 mm 2,3 km/h (1 Bft) O 90 14,6 C 0,0 km/h (0 Bft)
24.08.2015 10:10 17,4 C 19,4 C 84 % 1003,1 hPa 0,0 mm 0,0 km/h (0 Bft) O-SO 112 14,7 C 0,0 km/h (0 Bft)
24.08.2015 10:15 17,5 C 19,4 C 84 % 1003,1 hPa 0,0 mm 1,0 km/h (0 Bft) O-SO 112 14,8 C 0,0 km/h (0 Bft)
24.08.2015 10:20 17,5 C 19,5 C 83 % 1003,1 hPa 0,0 mm 1,0 km/h (0 Bft) O-NO 67 14,6 C 0,0 km/h (0 Bft)
24.08.2015 10:25 17,6 C 19,6 C 83 % 1003,1 hPa 0,0 mm 0,0 km/h (0 Bft) O-NO 67 14,7 C 0,0 km/h (0 Bft)
24.08.2015 10:30 17,5 C 19,6 C 82 % 1003,1 hPa 0,0 mm 0,5 km/h (0 Bft) O-SO 112 14,4 C 2,6 km/h (1 Bft)
24.08.2015 10:35 17,5 C 19,6 C 81 % 1003,4 hPa 0,0 mm 0,8 km/h (0 Bft) S-SO 157 14,2 C 0,0 km/h (0 Bft)
24.08.2015 10:40 17,6 C 19,7 C 81 % 1003,4 hPa 0,0 mm 0,3 km/h (0 Bft) S-SO 157 14,3 C 0,0 km/h (0 Bft)
24.08.2015 10:45 17,6 C 19,8 C 80 % 1003,4 hPa 0,0 mm 0,0 km/h (0 Bft) S-SO 157 14,1 C 0,0 km/h (0 Bft)
24.08.2015 10:50 17,7 C 19,8 C 80 % 1003,4 hPa 0,0 mm 0,0 km/h (0 Bft) S-SO 157 14,2 C 0,0 km/h (0 Bft)
24.08.2015 10:55 17,7 C 19,9 C 79 % 1003,4 hPa 0,0 mm 0,0 km/h (0 Bft) S-SO 157 14,0 C 0,0 km/h (0 Bft)
24.08.2015 11:00 18,2 C 20,6 C 78 % 1003,4 hPa 0,0 mm 0,8 km/h (0 Bft) S 180 14,3 C 0,0 km/h (0 Bft)
24.08.2015 11:05 18,3 C 20,9 C 78 % 1003,4 hPa 0,0 mm 0,8 km/h (0 Bft) S-SO 157 14,4 C 0,0 km/h (0 Bft)
24.08.2015 11:10 18,3 C 20,8 C 78 % 1003,4 hPa 0,0 mm 0,0 km/h (0 Bft) S-SO 157 14,4 C 0,0 km/h (0 Bft)
24.08.2015 11:15 18,2 C 20,5 C 77 % 1003,5 hPa 0,0 mm 0,0 km/h (0 Bft) S-SO 157 14,1 C 0,0 km/h (0 Bft)
24.08.2015 11:20 18,1 C 20,3 C 77 % 1003,5 hPa 0,0 mm 0,0 km/h (0 Bft) S-SO 157 14,0 C 0,0 km/h (0 Bft)
24.08.2015 11:25 18,2 C 20,3 C 77 % 1003,5 hPa 0,0 mm 0,0 km/h (0 Bft) S-SO 157 14,1 C 0,0 km/h (0 Bft)
24.08.2015 11:30 18,2 C 20,2 C 76 % 1003,5 hPa 0,0 mm 0,0 km/h (0 Bft) S-SO 157 13,9 C 0,0 km/h (0 Bft)
24.08.2015 11:35 18,2 C 20,1 C 76 % 1003,4 hPa 0,0 mm 0,0 km/h (0 Bft) S-SO 157 13,9 C 0,0 km/h (0 Bft)
24.08.2015 11:40 18,2 C 20,1 C 76 % 1003,4 hPa 0,0 mm 0,0 km/h (0 Bft) S-SO 157 13,9 C 0,0 km/h (0 Bft)
24.08.2015 11:45 18,2 C 20,1 C 76 % 1003,4 hPa 0,0 mm 0,0 km/h (0 Bft) S-SO 157 13,9 C 0,0 km/h (0 Bft)
24.08.2015 11:50 18,5 C 20,6 C 76 % 1003,4 hPa 0,0 mm 0,0 km/h (0 Bft) SO 135 14,2 C 0,0 km/h (0 Bft)
24.08.2015 11:55 18,8 C 21,2 C 76 % 1003,4 hPa 0,0 mm 0,0 km/h (0 Bft) SO 135 14,5 C 0,0 km/h (0 Bft)
24.08.2015 12:00 19,3 C 22,1 C 75 % 1003,4 hPa 0,0 mm 0,0 km/h (0 Bft) SO 135 14,8 C 0,0 km/h (0 Bft)
24.08.2015 12:01 19,5 C 22,6 C 74 % 1003,4 hPa 0,0 mm 0,0 km/h (0 Bft) SO 135 14,7 C 0,0 km/h (0 Bft)
24.08.2015 12:05 19,5 C 22,6 C 74 % 1003,4 hPa 0,0 mm 0,0 km/h (0 Bft) SO 135 14,7 C 0,0 km/h (0 Bft)
24.08.2015 12:10 20,0 C 23,3 C 74 % 1003,4 hPa 0,0 mm 0,0 km/h (0 Bft) SO 135 15,2 C 0,0 km/h (0 Bft)
24.08.2015 12:15 20,2 C 23,7 C 73 % 1003,2 hPa 0,0 mm 0,0 km/h (0 Bft) SO 135 15,2 C 0,0 km/h (0 Bft)
24.08.2015 12:20 21,6 C 26,1 C 72 % 1003,2 hPa 0,0 mm 0,0 km/h (0 Bft) SO 135 16,3 C 2,8 km/h (1 Bft)
24.08.2015 12:25 22,5 C 28,2 C 70 % 1003,2 hPa 0,0 mm 0,3 km/h (0 Bft) O-NO 67 16,7 C 0,0 km/h (0 Bft)
24.08.2015 12:30 22,7 C 28,6 C 68 % 1003,2 hPa 0,0 mm 0,8 km/h (0 Bft) NO 45 16,5 C 0,0 km/h (0 Bft)
24.08.2015 12:35 22,5 C 28,2 C 68 % 1003,2 hPa 0,0 mm 0,3 km/h (0 Bft) O-NO 67 16,3 C 0,0 km/h (0 Bft)
24.08.2015 12:40 22,8 C 28,4 C 68 % 1003,2 hPa 0,0 mm 0,0 km/h (0 Bft) O-NO 67 16,6 C 0,0 km/h (0 Bft)
24.08.2015 12:45 23,0 C 28,7 C 66 % 1003,2 hPa 0,0 mm 0,0 km/h (0 Bft) O-NO 67 16,3 C 0,0 km/h (0 Bft)
24.08.2015 12:50 24,1 C 30,3 C 66 % 1003,2 hPa 0,0 mm 0,0 km/h (0 Bft) N 360 17,3 C 0,0 km/h (0 Bft)
24.08.2015 12:55 24,6 C 31,5 C 64 % 1003,6 hPa 0,0 mm 0,5 km/h (0 Bft) W 270 17,3 C 0,0 km/h (0 Bft)
24.08.2015 13:00 25,1 C 31,4 C 63 % 1003,6 hPa 0,0 mm 0,8 km/h (0 Bft) O-NO 67 17,5 C 0,0 km/h (0 Bft)
24.08.2015 13:05 25,1 C 31,1 C 59 % 1003,6 hPa 0,0 mm 1,6 km/h (1 Bft) N-NO 22 16,5 C 4,7 km/h (1 Bft)
24.08.2015 13:10 25,3 C 30,1 C 59 % 1003,6 hPa 0,0 mm 1,8 km/h (1 Bft) N-NO 22 16,7 C 0,0 km/h (0 Bft)
24.08.2015 13:15 26,0 C 30,2 C 58 % 1003,7 hPa 0,0 mm 1,6 km/h (1 Bft) N-NO 22 17,1 C 7,5 km/h (2 Bft)
24.08.2015 13:20 26,7 C 31,0 C 55 % 1003,7 hPa 0,0 mm 1,6 km/h (1 Bft) W-NW 292 16,9 C 4,7 km/h (1 Bft)
24.08.2015 13:25 27,2 C 32,1 C 55 % 1003,7 hPa 0,0 mm 2,3 km/h (1 Bft) N-NW 337 17,4 C 9,6 km/h (2 Bft)
24.08.2015 13:30 26,8 C 31,9 C 50 % 1003,7 hPa 0,0 mm 3,9 km/h (1 Bft) O 90 15,5 C 16,6 km/h (3 Bft)
24.08.2015 13:35 26,5 C 31,9 C 50 % 1003,6 hPa 0,0 mm 5,4 km/h (1 Bft) N-NO 22 15,2 C 5,4 km/h (1 Bft)
24.08.2015 13:40 26,6 C 32,0 C 50 % 1003,6 hPa 0,0 mm 4,7 km/h (1 Bft) O-NO 67 15,3 C 3,1 km/h (1 Bft)
24.08.2015 13:45 26,6 C 32,2 C 50 % 1003,6 hPa 0,0 mm 3,9 km/h (1 Bft) O-NO 67 15,3 C 6,2 km/h (2 Bft)
24.08.2015 13:50 26,3 C 31,4 C 49 % 1003,6 hPa 0,0 mm 5,2 km/h (1 Bft) O-SO 112 14,7 C 6,0 km/h (2 Bft)
24.08.2015 13:55 26,3 C 31,4 C 50 % 1003,5 hPa 0,0 mm 6,5 km/h (2 Bft) NO 45 15,0 C 14,2 km/h (3 Bft)
24.08.2015 14:00 26,2 C 30,9 C 50 % 1003,5 hPa 0,0 mm 7,8 km/h (2 Bft) O 90 14,9 C 8,5 km/h (2 Bft)
24.08.2015 14:05 26,2 C 30,8 C 50 % 1003,5 hPa 0,0 mm 8,8 km/h (2 Bft) NO 45 14,9 C 11,9 km/h (2 Bft)
24.08.2015 14:10 26,4 C 31,0 C 51 % 1003,5 hPa 0,0 mm 7,0 km/h (2 Bft) N-NO 22 15,4 C 18,4 km/h (3 Bft)
24.08.2015 14:15 26,6 C 31,4 C 51 % 1003,3 hPa 0,0 mm 6,7 km/h (2 Bft) O-NO 67 15,6 C 10,4 km/h (2 Bft)
24.08.2015 14:20 25,8 C 30,4 C 53 % 1003,3 hPa 0,0 mm 6,5 km/h (2 Bft) SO 135 15,5 C 10,6 km/h (2 Bft)
24.08.2015 14:25 25,7 C 29,4 C 54 % 1003,3 hPa 0,0 mm 5,7 km/h (1 Bft) S-SO 157 15,7 C 4,7 km/h (1 Bft)
24.08.2015 14:30 25,9 C 29,0 C 51 % 1003,3 hPa 0,0 mm 6,5 km/h (2 Bft) W-NW 292 15,0 C 4,7 km/h (1 Bft)
24.08.2015 14:35 26,5 C 30,2 C 50 % 1003,1 hPa 0,0 mm 5,7 km/h (1 Bft) SO 135 15,2 C 5,7 km/h (1 Bft)
24.08.2015 14:40 26,2 C 30,3 C 50 % 1003,1 hPa 0,0 mm 5,7 km/h (1 Bft) NO 45 14,9 C 19,2 km/h (3 Bft)
24.08.2015 14:45 25,9 C 29,1 C 51 % 1003,1 hPa 0,0 mm 6,2 km/h (2 Bft) NO 45 15,0 C 10,9 km/h (2 Bft)
24.08.2015 14:50 26,1 C 29,1 C 52 % 1003,1 hPa 0,0 mm 5,2 km/h (1 Bft) O-NO 67 15,5 C 6,2 km/h (2 Bft)
24.08.2015 14:55 26,1 C 29,6 C 54 % 1003,1 hPa 0,0 mm 4,9 km/h (1 Bft) NW 315 16,0 C 2,6 km/h (1 Bft)
24.08.2015 15:00 26,2 C 30,8 C 55 % 1003,1 hPa 0,0 mm 6,0 km/h (2 Bft) SW 225 16,4 C 7,3 km/h (2 Bft)
24.08.2015 15:05 25,5 C 30,0 C 57 % 1003,1 hPa 0,0 mm 7,5 km/h (2 Bft) O-NO 67 16,3 C 6,7 km/h (2 Bft)
24.08.2015 15:10 24,9 C 27,8 C 58 % 1003,1 hPa 0,0 mm 7,3 km/h (2 Bft) O-NO 67 16,1 C 8,5 km/h (2 Bft)
24.08.2015 15:15 24,7 C 27,0 C 58 % 1003,3 hPa 0,0 mm 5,7 km/h (1 Bft) O-NO 67 15,9 C 8,8 km/h (2 Bft)
24.08.2015 15:20 24,5 C 26,6 C 59 % 1003,3 hPa 0,0 mm 4,4 km/h (1 Bft) O-NO 67 15,9 C 12,7 km/h (3 Bft)
24.08.2015 15:25 24,4 C 26,2 C 59 % 1003,3 hPa 0,0 mm 6,0 km/h (2 Bft) NO 45 15,9 C 6,2 km/h (2 Bft)
24.08.2015 15:30 24,8 C 26,4 C 59 % 1003,3 hPa 0,0 mm 6,5 km/h (2 Bft) N-NO 22 16,2 C 4,7 km/h (1 Bft)
24.08.2015 15:35 25,4 C 28,1 C 59 % 1003,1 hPa 0,0 mm 5,7 km/h (1 Bft) NW 315 16,8 C 13,5 km/h (3 Bft)
24.08.2015 15:40 26,0 C 29,7 C 58 % 1003,1 hPa 0,0 mm 7,0 km/h (2 Bft) NW 315 17,1 C 19,7 km/h (3 Bft)
24.08.2015 15:45 26,0 C 29,6 C 58 % 1003,1 hPa 0,0 mm 10,6 km/h (2 Bft) N-NW 337 17,1 C 16,8 km/h (3 Bft)
24.08.2015 15:50 25,6 C 28,9 C 59 % 1003,1 hPa 0,0 mm 13,2 km/h (3 Bft) NW 315 17,0 C 25,1 km/h (4 Bft)
24.08.2015 15:55 25,1 C 28,2 C 60 % 1003,2 hPa 0,0 mm 12,4 km/h (3 Bft) N 360 16,8 C 15,0 km/h (3 Bft)
24.08.2015 16:00 25,0 C 27,6 C 61 % 1003,2 hPa 0,0 mm 10,4 km/h (2 Bft) N-NW 337 16,9 C 10,4 km/h (2 Bft)
24.08.2015 16:05 25,0 C 28,0 C 61 % 1003,2 hPa 0,0 mm 9,8 km/h (2 Bft) N-NW 337 16,9 C 11,9 km/h (2 Bft)
24.08.2015 16:10 24,3 C 26,7 C 61 % 1003,2 hPa 0,0 mm 9,6 km/h (2 Bft) N-NO 22 16,3 C 7,0 km/h (2 Bft)
24.08.2015 16:15 24,1 C 25,8 C 62 % 1003,3 hPa 0,0 mm 8,8 km/h (2 Bft) NW 315 16,4 C 6,2 km/h (2 Bft)
24.08.2015 16:20 24,0 C 25,5 C 62 % 1003,3 hPa 0,0 mm 6,0 km/h (2 Bft) W 270 16,3 C 4,7 km/h (1 Bft)
24.08.2015 16:25 23,8 C 25,7 C 63 % 1003,3 hPa 0,0 mm 5,4 km/h (1 Bft) W-NW 292 16,3 C 8,0 km/h (2 Bft)
24.08.2015 16:30 23,8 C 25,9 C 64 % 1003,3 hPa 0,0 mm 4,9 km/h (1 Bft) NW 315 16,6 C 7,5 km/h (2 Bft)
24.08.2015 16:35 24,0 C 27,5 C 63 % 1003,5 hPa 0,0 mm 5,7 km/h (1 Bft) W-NW 292 16,5 C 7,3 km/h (2 Bft)
24.08.2015 16:40 23,7 C 26,8 C 62 % 1003,5 hPa 0,0 mm 5,2 km/h (1 Bft) N-NO 22 16,0 C 4,1 km/h (1 Bft)
24.08.2015 16:45 23,7 C 26,0 C 62 % 1003,5 hPa 0,0 mm 3,9 km/h (1 Bft) NW 315 16,0 C 2,6 km/h (1 Bft)
24.08.2015 16:50 23,7 C 26,1 C 63 % 1003,5 hPa 0,0 mm 2,1 km/h (1 Bft) W-NW 292 16,2 C 4,9 km/h (1 Bft)
24.08.2015 16:55 23,8 C 26,1 C 63 % 1003,2 hPa 0,0 mm 2,8 km/h (1 Bft) W 270 16,3 C 9,3 km/h (2 Bft)
24.08.2015 17:00 23,6 C 25,4 C 64 % 1003,2 hPa 0,0 mm 3,6 km/h (1 Bft) W 270 16,4 C 4,9 km/h (1 Bft)
24.08.2015 17:05 23,5 C 25,4 C 65 % 1003,2 hPa 0,0 mm 3,4 km/h (1 Bft) W-SW 247 16,5 C 10,4 km/h (2 Bft)
24.08.2015 17:10 23,5 C 25,2 C 65 % 1003,2 hPa 0,0 mm 5,7 km/h (1 Bft) W-NW 292 16,5 C 12,4 km/h (3 Bft)
24.08.2015 17:15 23,5 C 25,2 C 65 % 1003,4 hPa 0,0 mm 7,5 km/h (2 Bft) W 270 16,5 C 7,3 km/h (2 Bft)
24.08.2015 17:20 23,4 C 25,1 C 65 % 1003,4 hPa 0,0 mm 6,7 km/h (2 Bft) SW 225 16,4 C 6,7 km/h (2 Bft)
24.08.2015 17:25 23,3 C 24,9 C 65 % 1003,4 hPa 0,0 mm 6,5 km/h (2 Bft) W-NW 292 16,3 C 10,6 km/h (2 Bft)
24.08.2015 17:30 23,2 C 24,9 C 64 % 1003,4 hPa 0,0 mm 7,0 km/h (2 Bft) N-NW 337 16,0 C 3,6 km/h (1 Bft)
24.08.2015 17:35 23,0 C 24,8 C 64 % 1003,6 hPa 0,0 mm 6,7 km/h (2 Bft) S 180 15,8 C 5,4 km/h (1 Bft)
24.08.2015 17:40 22,9 C 24,5 C 66 % 1003,6 hPa 0,0 mm 6,0 km/h (2 Bft) W-NW 292 16,2 C 5,2 km/h (1 Bft)
24.08.2015 17:45 23,0 C 24,6 C 65 % 1003,6 hPa 0,0 mm 5,7 km/h (1 Bft) NW 315 16,1 C 7,0 km/h (2 Bft)
24.08.2015 17:50 22,9 C 24,4 C 66 % 1003,6 hPa 0,0 mm 6,0 km/h (2 Bft) W-NW 292 16,2 C 7,5 km/h (2 Bft)
24.08.2015 17:55 22,9 C 24,2 C 66 % 1003,8 hPa 0,0 mm 7,3 km/h (2 Bft) NW 315 16,2 C 13,2 km/h (3 Bft)
24.08.2015 18:00 22,8 C 24,0 C 66 % 1003,8 hPa 0,0 mm 7,5 km/h (2 Bft) W-SW 247 16,1 C 4,9 km/h (1 Bft)
24.08.2015 18:01 22,7 C 23,9 C 66 % 1003,8 hPa 0,0 mm 6,5 km/h (2 Bft) W 270 16,0 C 2,8 km/h (1 Bft)
24.08.2015 18:06 22,7 C 23,9 C 66 % 1003,8 hPa 0,0 mm 6,5 km/h (2 Bft) W 270 16,0 C 2,8 km/h (1 Bft)
24.08.2015 18:10 22,6 C 23,7 C 66 % 1003,8 hPa 0,0 mm 5,2 km/h (1 Bft) W-SW 247 15,9 C 4,9 km/h (1 Bft)
24.08.2015 18:15 22,5 C 23,5 C 66 % 1003,8 hPa 0,0 mm 5,4 km/h (1 Bft) W-NW 292 15,8 C 10,1 km/h (2 Bft)
24.08.2015 18:20 22,4 C 23,1 C 66 % 1003,8 hPa 0,0 mm 5,7 km/h (1 Bft) NW 315 15,7 C 5,2 km/h (1 Bft)
24.08.2015 18:25 22,3 C 22,9 C 66 % 1003,8 hPa 0,0 mm 5,7 km/h (1 Bft) W-SW 247 15,6 C 4,7 km/h (1 Bft)
24.08.2015 18:30 22,1 C 22,8 C 66 % 1003,8 hPa 0,0 mm 6,0 km/h (2 Bft) NW 315 15,4 C 3,9 km/h (1 Bft)
24.08.2015 18:35 22,0 C 22,8 C 67 % 1003,9 hPa 0,0 mm 6,0 km/h (2 Bft) S-SW 202 15,6 C 11,1 km/h (2 Bft)
24.08.2015 18:40 21,8 C 22,7 C 67 % 1003,9 hPa 0,0 mm 8,0 km/h (2 Bft) SO 135 15,4 C 12,2 km/h (2 Bft)
24.08.2015 18:45 21,8 C 22,6 C 67 % 1003,9 hPa 0,0 mm 9,1 km/h (2 Bft) NW 315 15,4 C 19,9 km/h (4 Bft)
24.08.2015 18:50 21,6 C 22,3 C 67 % 1003,9 hPa 0,0 mm 8,3 km/h (2 Bft) W-SW 247 15,2 C 9,3 km/h (2 Bft)
24.08.2015 18:55 21,5 C 22,2 C 67 % 1004,2 hPa 0,0 mm 6,7 km/h (2 Bft) SW 225 15,1 C 0,0 km/h (0 Bft)
24.08.2015 19:00 21,4 C 22,1 C 68 % 1004,2 hPa 0,0 mm 4,9 km/h (1 Bft) W-NW 292 15,2 C 7,3 km/h (2 Bft)
24.08.2015 19:05 21,2 C 21,9 C 68 % 1004,2 hPa 0,0 mm 6,7 km/h (2 Bft) SW 225 15,1 C 8,5 km/h (2 Bft)
24.08.2015 19:10 20,9 C 21,5 C 68 % 1004,2 hPa 0,0 mm 7,8 km/h (2 Bft) W 270 14,8 C 13,2 km/h (3 Bft)
24.08.2015 19:15 20,6 C 21,2 C 69 % 1004,2 hPa 0,0 mm 7,5 km/h (2 Bft) W 270 14,7 C 6,5 km/h (2 Bft)
24.08.2015 19:20 20,4 C 20,7 C 69 % 1004,2 hPa 0,0 mm 7,3 km/h (2 Bft) W 270 14,5 C 6,2 km/h (2 Bft)
24.08.2015 19:25 20,2 C 20,3 C 70 % 1004,2 hPa 0,0 mm 6,0 km/h (2 Bft) O-SO 112 14,5 C 9,1 km/h (2 Bft)
24.08.2015 19:30 20,0 C 20,0 C 71 % 1004,2 hPa 0,0 mm 6,0 km/h (2 Bft) W-NW 292 14,6 C 8,3 km/h (2 Bft)
24.08.2015 19:35 19,8 C 19,9 C 71 % 1004,5 hPa 0,0 mm 6,0 km/h (2 Bft) W-NW 292 14,4 C 8,0 km/h (2 Bft)
24.08.2015 19:40 19,6 C 19,6 C 72 % 1004,5 hPa 0,0 mm 3,6 km/h (1 Bft) N 360 14,4 C 7,3 km/h (2 Bft)
24.08.2015 19:45 19,5 C 19,5 C 72 % 1004,5 hPa 0,0 mm 3,1 km/h (1 Bft) W-NW 292 14,3 C 8,3 km/h (2 Bft)
24.08.2015 19:50 19,3 C 19,3 C 72 % 1004,5 hPa 0,0 mm 3,4 km/h (1 Bft) W-SW 247 14,1 C 0,0 km/h (0 Bft)
24.08.2015 19:55 19,1 C 19,1 C 72 % 1004,8 hPa 0,0 mm 2,8 km/h (1 Bft) SW 225 13,9 C 6,2 km/h (2 Bft)
24.08.2015 20:00 19,0 C 18,9 C 73 % 1004,8 hPa 0,0 mm 3,1 km/h (1 Bft) NW 315 14,0 C 4,9 km/h (1 Bft)
24.08.2015 20:05 19,1 C 19,0 C 73 % 1004,8 hPa 0,0 mm 5,2 km/h (1 Bft) S 180 14,1 C 7,5 km/h (2 Bft)
24.08.2015 20:10 18,8 C 18,8 C 71 % 1004,8 hPa 0,0 mm 9,1 km/h (2 Bft) W-SW 247 13,4 C 33,9 km/h (5 Bft)
24.08.2015 20:15 18,5 C 18,5 C 70 % 1005,9 hPa 0,0 mm 11,7 km/h (2 Bft) W 270 12,9 C 10,9 km/h (2 Bft)
24.08.2015 20:20 18,0 C 18,2 C 72 % 1005,9 hPa 0,0 mm 15,8 km/h (3 Bft) O-SO 112 12,9 C 39,9 km/h (6 Bft)
24.08.2015 20:25 17,6 C 17,5 C 74 % 1005,9 hPa 0,0 mm 14,8 km/h (3 Bft) W-SW 247 12,9 C 9,3 km/h (2 Bft)
24.08.2015 20:30 16,5 C 16,4 C 78 % 1005,9 hPa 0,0 mm 11,1 km/h (2 Bft) SW 225 12,6 C 12,4 km/h (3 Bft)
24.08.2015 20:35 16,2 C 16,0 C 80 % 1006,5 hPa 0,0 mm 9,1 km/h (2 Bft) W 270 12,7 C 8,0 km/h (2 Bft)
24.08.2015 20:40 16,0 C 15,8 C 81 % 1006,5 hPa 0,0 mm 8,0 km/h (2 Bft) SW 225 12,7 C 17,9 km/h (3 Bft)
24.08.2015 20:45 15,7 C 15,5 C 83 % 1006,5 hPa 0,0 mm 9,6 km/h (2 Bft) W 270 12,8 C 13,7 km/h (3 Bft)
24.08.2015 20:50 15,2 C 15,1 C 83 % 1006,5 hPa 0,0 mm 12,4 km/h (3 Bft) W 270 12,3 C 37,8 km/h (5 Bft)
24.08.2015 20:55 15,0 C 14,8 C 83 % 1007,1 hPa 0,0 mm 11,4 km/h (2 Bft) S-SO 157 12,1 C 11,9 km/h (2 Bft)
24.08.2015 21:00 14,6 C 14,3 C 83 % 1007,1 hPa 0,0 mm 10,6 km/h (2 Bft) W-SW 247 11,7 C 8,3 km/h (2 Bft)
24.08.2015 21:05 14,5 C 14,2 C 83 % 1007,1 hPa 0,0 mm 9,8 km/h (2 Bft) NW 315 11,6 C 12,2 km/h (2 Bft)
24.08.2015 21:10 14,3 C 14,0 C 83 % 1007,1 hPa 0,0 mm 9,3 km/h (2 Bft) W-SW 247 11,5 C 16,6 km/h (3 Bft)
24.08.2015 21:15 14,2 C 13,9 C 83 % 1007,6 hPa 0,0 mm 9,1 km/h (2 Bft) N-NW 337 11,4 C 13,2 km/h (3 Bft)
24.08.2015 21:20 14,0 C 13,6 C 83 % 1007,6 hPa 0,0 mm 9,6 km/h (2 Bft) W-NW 292 11,2 C 13,5 km/h (3 Bft)
24.08.2015 21:25 13,8 C 13,5 C 83 % 1007,6 hPa 0,0 mm 9,3 km/h (2 Bft) W 270 11,0 C 18,1 km/h (3 Bft)
24.08.2015 21:30 13,5 C 13,2 C 82 % 1007,6 hPa 0,0 mm 9,3 km/h (2 Bft) W-SW 247 10,5 C 8,5 km/h (2 Bft)
24.08.2015 21:35 13,4 C 13,1 C 82 % 1008,1 hPa 0,0 mm 8,8 km/h (2 Bft) S 180 10,4 C 7,3 km/h (2 Bft)
24.08.2015 21:40 13,2 C 12,9 C 82 % 1008,1 hPa 0,0 mm 7,8 km/h (2 Bft) W 270 10,2 C 6,7 km/h (2 Bft)
24.08.2015 21:45 13,1 C 12,8 C 82 % 1008,1 hPa 0,0 mm 7,5 km/h (2 Bft) W 270 10,1 C 9,1 km/h (2 Bft)
24.08.2015 21:50 13,0 C 12,7 C 82 % 1008,1 hPa 0,0 mm 7,0 km/h (2 Bft) W 270 10,0 C 10,4 km/h (2 Bft)
24.08.2015 21:55 12,9 C 12,6 C 83 % 1008,3 hPa 0,0 mm 7,5 km/h (2 Bft) NW 315 10,1 C 13,2 km/h (3 Bft)
24.08.2015 22:00 12,8 C 12,5 C 83 % 1008,3 hPa 0,0 mm 7,0 km/h (2 Bft) W-NW 292 10,0 C 17,9 km/h (3 Bft)
24.08.2015 22:05 12,8 C 12,6 C 83 % 1008,3 hPa 0,0 mm 6,7 km/h (2 Bft) NW 315 10,0 C 4,4 km/h (1 Bft)
24.08.2015 22:10 12,8 C 12,6 C 83 % 1008,3 hPa 0,0 mm 7,8 km/h (2 Bft) W-NW 292 10,0 C 18,6 km/h (3 Bft)
24.08.2015 22:15 12,8 C 12,7 C 83 % 1008,4 hPa 0,0 mm 7,0 km/h (2 Bft) NW 315 10,0 C 19,9 km/h (4 Bft)
24.08.2015 22:20 12,7 C 12,6 C 82 % 1008,4 hPa 0,0 mm 7,5 km/h (2 Bft) W 270 9,7 C 8,3 km/h (2 Bft)
24.08.2015 22:25 12,7 C 12,6 C 82 % 1008,4 hPa 0,0 mm 8,3 km/h (2 Bft) W-SW 247 9,7 C 11,9 km/h (2 Bft)
24.08.2015 22:30 12,6 C 12,5 C 82 % 1008,4 hPa 0,0 mm 7,0 km/h (2 Bft) W-NW 292 9,6 C 11,9 km/h (2 Bft)
24.08.2015 22:35 12,5 C 12,4 C 82 % 1008,2 hPa 0,0 mm 7,5 km/h (2 Bft) W-SW 247 9,5 C 11,1 km/h (2 Bft)
24.08.2015 22:40 12,5 C 12,4 C 82 % 1008,2 hPa 0,0 mm 7,8 km/h (2 Bft) S-SW 202 9,5 C 11,4 km/h (2 Bft)
24.08.2015 22:45 12,4 C 12,4 C 82 % 1008,2 hPa 0,0 mm 7,8 km/h (2 Bft) N-NW 337 9,4 C 6,5 km/h (2 Bft)
24.08.2015 22:50 12,4 C 12,4 C 80 % 1008,2 hPa 0,0 mm 7,3 km/h (2 Bft) W-SW 247 9,0 C 10,6 km/h (2 Bft)
24.08.2015 22:55 12,5 C 12,5 C 80 % 1008,4 hPa 0,0 mm 7,5 km/h (2 Bft) W-SW 247 9,1 C 10,9 km/h (2 Bft)
24.08.2015 23:00 12,7 C 12,7 C 79 % 1008,4 hPa 0,0 mm 6,5 km/h (2 Bft) W-NW 292 9,2 C 7,3 km/h (2 Bft)
24.08.2015 23:05 12,8 C 12,8 C 79 % 1008,4 hPa 0,0 mm 6,5 km/h (2 Bft) SW 225 9,2 C 8,3 km/h (2 Bft)
24.08.2015 23:10 13,0 C 12,9 C 79 % 1008,4 hPa 0,0 mm 6,7 km/h (2 Bft) SW 225 9,4 C 7,3 km/h (2 Bft)
24.08.2015 23:15 13,0 C 13,0 C 78 % 1008,3 hPa 0,0 mm 7,3 km/h (2 Bft) SO 135 9,3 C 12,4 km/h (3 Bft)
24.08.2015 23:20 13,0 C 13,0 C 77 % 1008,3 hPa 0,0 mm 6,7 km/h (2 Bft) S 180 9,1 C 8,3 km/h (2 Bft)
24.08.2015 23:25 13,0 C 13,0 C 77 % 1008,3 hPa 0,0 mm 6,5 km/h (2 Bft) W-SW 247 9,1 C 4,7 km/h (1 Bft)
24.08.2015 23:30 13,1 C 13,1 C 76 % 1008,3 hPa 0,0 mm 8,3 km/h (2 Bft) W-SW 247 9,0 C 14,8 km/h (3 Bft)
24.08.2015 23:35 13,2 C 13,2 C 75 % 1008,4 hPa 0,0 mm 8,5 km/h (2 Bft) NW 315 8,9 C 6,7 km/h (2 Bft)
24.08.2015 23:40 13,2 C 13,1 C 74 % 1008,4 hPa 0,0 mm 9,6 km/h (2 Bft) S-SO 157 8,7 C 6,5 km/h (2 Bft)
24.08.2015 23:45 13,2 C 13,0 C 74 % 1008,4 hPa 0,0 mm 8,8 km/h (2 Bft) W 270 8,7 C 12,2 km/h (2 Bft)
24.08.2015 23:50 13,1 C 12,9 C 74 % 1008,4 hPa 0,0 mm 8,3 km/h (2 Bft) SW 225 8,6 C 10,6 km/h (2 Bft)
24.08.2015 23:55 13,0 C 12,7 C 75 % 1008,6 hPa 0,0 mm 7,8 km/h (2 Bft) W 270 8,7 C 10,9 km/h (2 Bft)
_ Min-Zeit 22:50 22:50 13:50 09:10 - 12:50 - - 23:50 19:50
Minimum _ 12,4 C 12,4 C 49 % 1002,5 hPa - 0,0 km/h (0 Bft) - - 8,6 C 0,0 km/h (0 Bft)
_ Max-Zeit 13:25 13:45 07:05 23:55 23:55 20:20 - - 13:00 20:20
Maximum _ 27,2 C 32,2 C 90 % 1008,6 hPa 0,0 mm 15,8 km/h
O-SO (3 Bft)
- - 17,5 C 39,9 km/h
O-SO (6 Bft)
Durchschnitt _ 17,7 C 18,8 C 77 % 1004,3 hPa #0,0 mm 3,8 km/h (1 Bft) O-NO - 13,4 C 5,3 km/h (1 Bft)